TimeEDT,TemperatureF,Dew PointF,Humidity,Sea Level PressureIn,VisibilityMPH,Wind Direction,Wind SpeedMPH,Gust SpeedMPH,PrecipitationIn,Events,Conditions,WindDirDegrees,DateUTC
12:53 AM,48.0,30.9,52,29.96,10.0,SSW,4.6,-,N/A,,Overcast,210,2013-04-14 04:53:00
1:53 AM,48.9,30.0,48,29.97,10.0,SW,8.1,-,N/A,,Overcast,220,2013-04-14 05:53:00
2:53 AM,48.0,30.0,50,29.96,10.0,SW,6.9,-,N/A,,Overcast,230,2013-04-14 06:53:00
3:53 AM,48.0,30.9,52,29.95,10.0,WSW,5.8,-,N/A,,Overcast,240,2013-04-14 07:53:00
4:53 AM,46.0,30.0,54,29.96,10.0,WSW,5.8,-,N/A,,Mostly Cloudy,250,2013-04-14 08:53:00
5:53 AM,43.0,32.0,65,29.97,10.0,WSW,3.5,-,N/A,,Scattered Clouds,250,2013-04-14 09:53:00
6:53 AM,39.0,32.0,76,29.99,10.0,WSW,3.5,-,N/A,,Partly Cloudy,240,2013-04-14 10:53:00
7:53 AM,48.0,30.0,50,30.02,10.0,West,11.5,16.1,N/A,,Clear,260,2013-04-14 11:53:00
8:53 AM,48.0,28.9,48,30.03,10.0,NNW,12.7,17.3,N/A,,Mostly Cloudy,330,2013-04-14 12:53:00
9:53 AM,46.9,26.1,44,30.05,10.0,WNW,10.4,17.3,N/A,,Overcast,300,2013-04-14 13:53:00
10:53 AM,50.0,25.0,38,30.05,10.0,West,9.2,20.7,N/A,,Partly Cloudy,280,2013-04-14 14:53:00
11:53 AM,48.0,24.1,39,30.07,10.0,West,12.7,20.7,N/A,,Mostly Cloudy,260,2013-04-14 15:53:00
12:53 PM,50.0,25.0,38,30.06,10.0,WNW,11.5,19.6,N/A,,Mostly Cloudy,300,2013-04-14 16:53:00
1:53 PM,50.0,23.0,35,30.07,10.0,NW,12.7,-,N/A,,Mostly Cloudy,320,2013-04-14 17:53:00
2:53 PM,51.1,23.0,33,30.08,10.0,West,10.4,25.3,N/A,,Overcast,280,2013-04-14 18:53:00
3:53 PM,50.0,24.1,36,30.08,10.0,NW,11.5,19.6,N/A,,Scattered Clouds,320,2013-04-14 19:53:00
4:53 PM,51.1,24.1,35,30.10,10.0,WNW,10.4,21.9,N/A,,Partly Cloudy,290,2013-04-14 20:53:00
5:53 PM,50.0,23.0,35,30.12,10.0,WNW,9.2,20.7,N/A,,Clear,290,2013-04-14 21:53:00
6:53 PM,48.0,24.1,39,30.14,10.0,NNW,8.1,-,N/A,,Clear,340,2013-04-14 22:53:00
7:53 PM,46.0,23.0,40,30.18,10.0,NNW,6.9,-,N/A,,Clear,330,2013-04-14 23:53:00
8:53 PM,45.0,23.0,42,30.21,10.0,NNE,5.8,-,N/A,,Clear,30,2013-04-15 00:53:00
9:53 PM,44.1,23.0,43,30.22,10.0,NE,4.6,-,N/A,,Clear,40,2013-04-15 01:53:00
10:53 PM,42.1,23.0,47,30.22,10.0,Calm,Calm,-,N/A,,Clear,0,2013-04-15 02:53:00
11:53 PM,41.0,23.0,49,30.23,10.0,Calm,Calm,-,N/A,,Clear,0,2013-04-15 03:53:00